TimeEDT,TemperatureF,Dew PointF,Humidity,Sea Level PressureIn,VisibilityMPH,Wind Direction,Wind SpeedMPH,Gust SpeedMPH,PrecipitationIn,Events,Conditions,WindDirDegrees,DateUTC
12:56 AM,75.9,72.0,87,30.21,10.0,WSW,5.8,-,N/A,,Clear,240,2013-07-15 04:56:00
1:56 AM,77.0,72.0,84,30.20,10.0,West,6.9,-,N/A,,Clear,260,2013-07-15 05:56:00
2:56 AM,75.9,72.0,87,30.20,10.0,West,6.9,-,N/A,,Clear,260,2013-07-15 06:56:00
3:56 AM,77.0,72.0,84,30.20,10.0,West,5.8,-,N/A,,Mostly Cloudy,270,2013-07-15 07:56:00
4:56 AM,77.0,71.1,82,30.20,10.0,West,8.1,-,N/A,,Clear,270,2013-07-15 08:56:00
5:56 AM,77.0,71.1,82,30.21,10.0,West,6.9,-,N/A,,Mostly Cloudy,270,2013-07-15 09:56:00
6:56 AM,79.0,71.1,77,30.21,10.0,West,5.8,-,N/A,,Mostly Cloudy,270,2013-07-15 10:56:00
7:56 AM,82.0,71.1,69,30.21,10.0,West,8.1,-,N/A,,Scattered Clouds,280,2013-07-15 11:56:00
8:56 AM,84.0,71.1,65,30.21,10.0,WNW,6.9,-,N/A,,Mostly Cloudy,290,2013-07-15 12:56:00
9:56 AM,87.1,71.1,59,30.19,10.0,NW,9.2,-,N/A,,Partly Cloudy,320,2013-07-15 13:56:00
10:56 AM,90.0,71.1,54,30.19,10.0,NW,8.1,-,N/A,,Partly Cloudy,310,2013-07-15 14:56:00
11:56 AM,91.0,72.0,53,30.18,10.0,WNW,8.1,-,N/A,,Partly Cloudy,300,2013-07-15 15:56:00
12:56 PM,91.9,72.0,52,30.17,10.0,NNW,9.2,-,N/A,,Scattered Clouds,330,2013-07-15 16:56:00
1:56 PM,93.0,72.0,50,30.16,10.0,NW,10.4,-,N/A,,Scattered Clouds,320,2013-07-15 17:56:00
2:56 PM,93.0,71.1,49,30.14,10.0,NNW,11.5,18.4,N/A,,Scattered Clouds,340,2013-07-15 18:56:00
3:56 PM,93.0,70.0,47,30.13,10.0,NW,10.4,17.3,N/A,,Mostly Cloudy,320,2013-07-15 19:56:00
4:56 PM,91.9,71.1,50,30.12,10.0,NW,10.4,-,N/A,,Scattered Clouds,320,2013-07-15 20:56:00
5:56 PM,91.9,70.0,48,30.12,10.0,NNW,10.4,-,N/A,,Mostly Cloudy,340,2013-07-15 21:56:00
6:56 PM,90.0,69.1,50,30.11,10.0,NNW,6.9,-,N/A,,Mostly Cloudy,340,2013-07-15 22:56:00
7:56 PM,86.0,69.1,57,30.12,10.0,North,4.6,-,N/A,,Scattered Clouds,360,2013-07-15 23:56:00
8:56 PM,84.0,70.0,63,30.12,10.0,Calm,Calm,-,N/A,,Scattered Clouds,0,2013-07-16 00:56:00
9:56 PM,80.1,72.0,76,30.13,10.0,SW,3.5,-,N/A,,Scattered Clouds,230,2013-07-16 01:56:00
10:56 PM,79.0,72.0,79,30.13,10.0,Calm,Calm,-,N/A,,Scattered Clouds,0,2013-07-16 02:56:00
11:56 PM,77.0,71.1,82,30.13,10.0,Calm,Calm,-,N/A,,Scattered Clouds,0,2013-07-16 03:56:00